#timestamp,LO_Frequency,Hit,StdDev 
1549616415.6,286046998.4,N
1549616435.4,286046999.1,N
1549616455.2,286047000.7,N
1549616475.1,286047000.2,N
1549616476.0,286047000.2,N
1549616495.8,286047001.2,N
1549616515.6,286046999.9,N
1549616535.5,286047001.2,N
1549616555.3,286047000.5,N
1549616575.2,286047001.0,N
1549616595.9,286046999.0,N
1549616615.7,286046998.8,N
1549616635.6,286046999.4,N
1549616655.4,286046999.4,N
1549616675.2,286046996.5,Y
1549616695.1,286046996.8,P
1549616696.0,286046996.8,N
1549616715.8,286046997.6,N
1549616735.7,286046997.9,N
1549616755.5,286046997.3,N
1549616775.3,286046995.5,Y
1549616795.2,286046996.8,P
1549616815.0,286046997.3,P
1549616815.9,286046997.3,P
1549616835.8,286046997.5,Y
1549616855.6,286046998.3,P
1549616875.4,286046996.5,P
1549616895.3,286046999.2,N
1549616915.1,286046996.7,Y
1549616935.8,286047000.8,P
1549616955.7,286046999.3,N
1549616975.5,286046999.1,N
1549616995.4,286046999.4,N
1549617015.2,286046998.6,N
1549617035.0,286047001.0,N
1549617035.9,286047001.0,N
1549617055.8,286047002.4,N
1549617075.6,286047000.1,N
1549617095.4,286047001.9,N
1549617115.3,286047002.2,N
1549617135.1,286047003.6,N
1549617155.9,286047001.6,N
1549617175.7,286047004.0,N
1549617195.5,286047003.5,N
1549617215.4,286047005.2,N
1549617235.2,286047007.3,Y
1549617255.0,286047004.8,P
1549617255.9,286047004.8,N
1549617275.8,286047004.5,N
1549617295.6,286047005.1,Y
1549617315.5,286046999.7,P
1549617335.3,286047002.0,N
1549617355.1,286047002.5,N
1549617375.9,286047000.2,N
1549617395.7,286047000.9,N
1549617415.5,286047000.8,N
1549617435.4,286046999.8,N
1549617455.2,286047001.6,N
1549617475.1,286047001.7,N
1549617476.0,286047001.7,N
1549617495.8,286047001.5,N
1549617515.6,286047002.0,N
1549617535.5,286047001.1,N
1549617555.3,286046997.1,N
1549617575.2,286046995.2,Y
1549617595.9,286046990.4,P
1549617615.7,286046989.1,N
1549617635.6,286046991.1,N
1549617655.4,286046988.6,N
1549617675.2,286046991.4,N
1549617695.1,286046990.1,N
1549617696.0,286046990.1,N
1549617715.8,286046993.4,N
1549617735.7,286046993.7,N
1549617755.5,286046993.4,N
1549617775.3,286046996.1,N
1549617795.2,286046995.9,N
1549617815.9,286046995.9,N
1549617835.7,286046996.2,N
1549617855.6,286046996.2,N
1549617875.4,286046995.7,N
1549617895.2,286046996.4,N
1549617915.1,286046994.6,N
1549617916.0,286046994.6,N
1549617935.8,286046994.3,N
1549617955.7,286046992.1,N
1549617975.5,286046994.8,N
1549617995.3,286046992.2,N
1549618015.2,286046993.2,N
1549618035.0,286046992.2,N
1549618035.9,286046992.2,N
1549618055.7,286046991.9,N
1549618075.6,286046994.7,N
1549618095.4,286046995.1,N
1549618115.3,286046997.7,N
1549618135.1,286046996.1,N
1549618136.0,286046996.1,N
1549618155.8,286046997.3,N
1549618175.7,286046997.9,N
1549618195.5,286046997.9,N
1549618215.3,286046995.0,N
1549618235.2,286046995.6,N
1549618255.0,286046995.0,N
1549618255.9,286046995.0,N
1549618275.8,286046996.9,N
1549618295.6,286046997.9,N
1549618315.4,286046995.5,N
1549618335.3,286046997.6,N
1549618355.1,286046996.7,N
1549618375.8,286047001.2,N
1549618395.7,286047000.3,N
1549618415.5,286047002.2,N
1549618435.4,286047002.1,N
1549618455.2,286047003.2,N
1549618475.0,286047002.5,N
1549618475.9,286047002.5,N
1549618495.8,286046999.9,N
1549618515.6,286047000.8,N
1549618535.4,286047011.9,Y
1549618555.3,286047002.1,P
1549618575.1,286047000.0,N
1549618595.9,286047000.1,N
1549618615.7,286047000.5,N
1549618635.5,286047002.6,N
1549618655.4,286047002.5,N
1549618675.2,286047001.5,N
1549618695.0,286047002.2,N
1549618696.0,286047002.2,N
1549618715.8,286047001.4,N
1549618735.6,286047001.9,N
1549618755.5,286046999.8,N
1549618775.3,286047000.3,N
1549618795.1,286047001.0,N
1549618815.9,286046999.9,N
1549618835.7,286047000.9,N
1549618855.5,286046998.9,N
1549618875.4,286046999.1,N
1549618895.2,286046999.0,N
1549618915.1,286046998.2,N
1549618916.0,286046998.2,N
1549618935.8,286047001.2,N
1549618955.6,286047002.8,N
1549618975.5,286047002.0,N
1549618995.3,286047004.0,N
1549619015.1,286047004.0,N
1549619035.9,286047002.7,N
1549619055.7,286047002.5,N
1549619075.6,286046999.7,N
1549619095.4,286046999.8,N
1549619115.2,286047000.3,N
1549619135.1,286047000.9,N
1549619136.0,286047000.9,N
1549619155.8,286046998.2,N
1549619175.6,286046998.4,N
1549619195.5,286046998.4,N
1549619215.3,286047000.5,N
1549619235.2,286047000.7,N
1549619255.9,286046998.1,N
1549619275.7,286047000.6,N
1549619295.6,286046999.4,N
1549619315.4,286046999.1,N
1549619335.2,286046998.2,N
1549619355.1,286046998.8,N
1549619356.0,286046998.8,N
1549619375.8,286047001.2,N
1549619395.7,286047000.1,N
1549619415.5,286046999.9,N
1549619435.3,286047001.0,N
1549619455.2,286047000.9,N
1549619475.0,286046998.7,N
1549619475.9,286046998.7,N
1549619495.7,286046998.2,N
1549619515.6,286046999.0,N
1549619535.4,286047000.8,N
1549619555.3,286046999.9,N
1549619575.1,286047000.3,N
1549619576.0,286047000.3,N
1549619595.8,286047000.3,N
1549619615.7,286047000.0,N
1549619635.5,286047000.5,N
1549619655.4,286047000.1,N
1549619675.2,286046998.3,N
1549619695.0,286046999.0,N
1549619695.9,286046999.0,N
1549619715.8,286046999.4,N
1549619735.6,286046999.1,N
1549619755.4,286046996.6,Y
1549619775.3,286046996.7,P
1549619795.1,286046993.3,P
1549619815.9,286046992.0,P
1549619835.7,286046990.8,Y
1549619855.5,286046994.6,P
1549619875.4,286046992.6,P
1549619895.2,286046992.7,P
1549619915.0,286046990.5,Y
1549619915.9,286046990.5,P
1549619935.8,286046999.0,N
1549619955.6,286046996.6,N
1549619975.5,286046999.0,N
1549619995.3,286047000.7,N
